Lid_Strength_Index
4 4 4 4 3 3 3 2 2 2 2 2 1 1 1 1 0 1 1 0 1 1 1 0 -1 -0 -1 -1 -1 -1 -1 -0 -0
5 4 4 4 3 3 3 2 2 2 2 2 1 1 1 1 1 1 1 0 0 0 -0 -0 -0 -0 -0 -0 -1 -1 -1 -0 -0
5 4 4 3 3 3 2 2 2 2 1 2 1 1 1 1 1 0 0 0 0 0 0 -0 -0 -0 -0 -0 -0 -1 -1 -0 -0
4 4 4 3 3 3 2 2 2 2 2 2 2 1 1 1 1 1 0 1 0 0 -0 -0 -0 -0 -0 -0 -0 -0 -0 -0 -0
4 3 3 3 3 3 2 2 2 2 2 2 1 1 1 1 1 1 1 1 0 -0 0 -0 -0 0 0 0 -0 -0 0 0 0
4 4 3 3 3 3 3 2 2 2 2 2 1 1 1 1 1 1 1 1 0 0 0 0 0 0 0 0 0 0 -0 0 0
4 4 3 3 3 3 3 2 2 2 2 1 1 1 1 2 1 1 1 1 1 0 0 0 0 0 0 0 0 0 0 0 0
4 4 4 4 4 3 3 3 2 2 2 2 1 2 2 2 1 1 1 1 1 1 0 0 0 0 0 0 0 0 0 0 0
4 4 4 3 3 3 3 3 3 2 2 2 1 2 2 2 1 1 1 1 1 1 1 1 1 1 1 1 1 3 3 1 1
4 4 3 3 3 3 3 3 2 2 2 2 2 2 2 2 1 2 1 1 1 1 1 1 1 1 1 1 1 5 4 3 0
4 3 3 3 2 2 2 2 2 2 2 2 2 2 2 2 2 2 1 1 2 1 1 1 1 1 1 1 1 6 5 4 0
3 3 3 2 2 2 2 2 2 2 2 2 2 2 2 2 2 2 2 2 2 1 1 1 1 1 1 1 1 6 7 4 1
3 3 2 2 2 2 2 2 1 2 2 2 3 2 2 2 1 2 2 2 2 1 1 1 1 1 1 2 1 7 8 5 1
2 2 2 2 2 2 2 2 2 3 2 3 2 1 1 1 1 2 1 1 1 1 2 1 2 2 1 1 1 1 8 8 1
3 3 3 2 3 3 2 2 2 3 3 2 1 1 2 2 2 2 1 2 2 2 1 2 2 2 2 1 1 5 9 9 7
4 4 4 3 3 3 3 2 2 3 2 1 2 2 2 2 1 2 1 2 2 2 2 2 3 3 3 2 2 1 8 10 9
5 4 4 3 3 4 4 2 2 2 2 1 1 2 2 2 2 2 2 2 2 2 2 3 3 3 3 3 2 2 6 7 8
4 4 3 3 3 3 3 2 2 2 2 1 2 2 2 2 2 2 2 2 2 2 2 2 2 2 2 3 4 6 9 8 6
4 4 3 3 3 3 3 2 2 2 1 1 2 3 2 2 2 2 2 3 3 13 14 12 11 11 4 2 10 13 14 14 14
5 3 3 4 4 3 3 2 2 2 1 1 2 2 3 2 3 2 3 3 3 4 7 15 15 14 14 12 12 14 14 14 12